Regional Weather Roundup
Issued by NWS

Home | Current Version | Previous Version | Graphics & Text | Print | Product List | Glossary On
Versions: 1 2 3 4 5 6 7 8 9 10 11 12 13 14 15 16 17 18 19 20 21 22 23 24 25 26 27 28 29 30 31 32 33 34 35 36 37 38 39 40 41 42 43 44 45 46 47 48 49 50
000
ASUS43 KFSD 020702
RWRSD

WEATHER ROUNDUP FOR SOUTH DAKOTA
NATIONAL WEATHER SERVICE SIOUX FALLS SD
200 AM CDT WED SEP 02 2015

NOTE: "FAIR" INDICATES FEW OR NO CLOUDS BELOW 12,000 FEET WITH NO
SIGNIFICANT WEATHER AND/OR OBSTRUCTIONS TO VISIBILITY.


SDZ001>005-009-010-012>017-020800-
NORTHWEST AND NORTH CENTRAL SOUTH DAKOTA

CITY           SKY/WX    TMP DP  RH WIND       PRES   REMARKS
BUFFALO          N/A     63  53  70 NE3       29.78F
FAITH            N/A     71  52  50 SE3       29.82F
MOBRIDGE       CLEAR     67  67 100 SE8       29.77F
$$

SDZ012>016-024>037-041>051-057-063-072>074-020800-
SOUTHWEST AND SOUTH CENTRAL SOUTH DAKOTA

CITY           SKY/WX    TMP DP  RH WIND       PRES   REMARKS
RAPID CTY ARPT CLEAR     61  52  72 NW8       29.87S
PIERRE         CLEAR     68  67  96 SE6       29.76F
CUSTER         CLEAR     56  43  61 NW5       30.05S
ELLSWORTH AFB  CLEAR     65  52  63 W6        29.87S
PHILIP         CLEAR     58  57  97 W7        29.80S
PINE RIDGE     CLEAR     65  46  50 SW5       29.89S
WINNER           N/A     75  62  64 S12       29.80F
$$

SDZ004>011-016>023-039-040-020800-
NORTHEAST SOUTH DAKOTA

CITY           SKY/WX    TMP DP  RH WIND       PRES   REMARKS
ABERDEEN       CLEAR     63  61  93 SE5       29.82F
WATERTOWN      CLEAR     68  62  81 SE9       29.87F
BROOKINGS      CLEAR     66  61  82 E9        29.89S
$$

SDZ017-020-022-023-036>040-048>070-020800-
SOUTHEAST SOUTH DAKOTA

CITY           SKY/WX    TMP DP  RH WIND       PRES   REMARKS
SIOUX FALLS    CLEAR     73  69  87 S10       29.85S
HURON          CLEAR     69  68  96 SE6       29.81S FOG
CHAMBERLAIN    CLEAR     67  67  98 E7        29.79F
MITCHELL       FOG       66  66 100 E6        29.82S VSB 1/2
YANKTON        CLEAR     73  66  78 S7        29.82F
$$

ABBREVIATIONS USED IN REMARKS
   TC - TEMPERATURE IN CELSIUS
  WCI - WIND CHILL INDEX
   HX - HEAT INDEX
  VSB - VISIBILITY



USA.gov is the U.S. government's official web portal to all federal, state and local government web resources and services.